Plattsmouth, NE

7:23 PM CDT on April 24, 2017 (GMT -0500)
Plattsmouth Municipal

Weather History for KPMV - March, 2014

Change the Weather History Date:

Thursday, March 13, 2014

  Actual Average (KOFF) Record (KOFF)
Temperature  
Mean Temperature 50 °F -  
Max Temperature 68 °F 44 °F 80 °F (2007)
Min Temperature 32 °F 25 °F 14 °F (1998)
Degree Days  
Heating Degree Days 15    
Moisture  
Dew Point 20 °F    
Average Humidity 35    
Maximum Humidity 64    
Minimum Humidity 12    
Precipitation  
Precipitation 0.00 in - - ()
Sea Level Pressure  
Sea Level Pressure 29.91 in    
Wind  
Wind Speed 11 mph (SW)    
Max Wind Speed 18 mph    
Max Gust Speed 30 mph    
Visibility 10 miles    
Events      
Averages and records for this station are not official NWS values.
T = Trace of Precipitation, MM = Missing Value Source: NWS Daily Summary

Daily Weather History Graph

Daily Weather History Graph

Search for Another Location

Airport or City:

Trip Planner

Search our weather history database for the weather conditions in past years. The results will help you decide how hot, cold, wet, or windy it might be!

Date:

Astronomy

Mar. 13, 2014 Rise Set
Actual Time 7:38 AM CDT 7:28 PM CDT
Civil Twilight 7:11 AM CDT 7:55 PM CDT
Nautical Twilight 6:39 AM CDT 8:27 PM CDT
Astronomical Twilight 6:07 AM CDT 8:59 PM CDT
Moon 4:54 PM CDT (3/13) 5:47 AM CDT (3/13)
Length of Visible Light 12h 44m
Length of Day
11h 49m
Waxing Gibbous, 91% of the Moon is Illuminated
Mar 13
Waxing Gibbous
Mar 16
Full
Mar 23
Last Quarter
Mar 30
New
Apr 7
First Quarter

Hourly Weather History & Observations

Time (CDT) Temp. Windchill Dew Point Humidity Pressure Visibility Wind Dir Wind Speed Gust Speed Precip Events Conditions
12:15 AM 38.5 °F 31.1 °F 21.4 °F 50% 30.05 in 10.0 mi South 11.5 mph - N/A   Clear
12:35 AM 38.7 °F 31.8 °F 21.0 °F 49% 30.05 in 10.0 mi South 10.4 mph - N/A   Clear
12:55 AM 37.8 °F 30.7 °F 21.0 °F 51% 30.04 in 10.0 mi South 10.4 mph - N/A   Clear
1:15 AM 39.2 °F 32.0 °F 21.0 °F 48% 30.04 in 10.0 mi South 11.5 mph - N/A   Clear
1:35 AM 39.2 °F 31.6 °F 20.7 °F 47% 30.04 in 10.0 mi South 12.7 mph - N/A   Clear
1:55 AM 39.6 °F 32.5 °F 20.3 °F 46% 30.04 in 10.0 mi SSW 11.5 mph - N/A   Clear
2:15 AM 38.3 °F 32.5 °F 20.3 °F 48% 30.04 in 10.0 mi SSW 8.1 mph - N/A   Clear
2:35 AM 36.9 °F 32.2 °F 20.3 °F 51% 30.04 in 10.0 mi SSW 5.8 mph - N/A   Clear
2:55 AM 36.0 °F 31.1 °F 20.1 °F 53% 30.04 in 10.0 mi SSW 5.8 mph - N/A   Clear
3:15 AM 35.6 °F 30.7 °F 19.9 °F 53% 30.03 in 10.0 mi SW 5.8 mph - N/A   Clear
3:35 AM 33.1 °F 26.1 °F 19.9 °F 59% 30.02 in 10.0 mi SW 8.1 mph - N/A   Clear
3:55 AM 34.9 °F 27.7 °F 19.9 °F 55% 30.01 in 10.0 mi West 9.2 mph - N/A   Clear
4:15 AM 33.6 °F 26.8 °F 20.1 °F 58% 30.02 in 10.0 mi West 8.1 mph - N/A   Clear
4:35 AM 34.0 °F 27.2 °F 20.3 °F 57% 30.01 in 10.0 mi West 8.1 mph - N/A   Clear
4:55 AM 32.9 °F 25.9 °F 20.1 °F 59% 30.01 in 10.0 mi West 8.1 mph - N/A   Clear
5:15 AM 33.3 °F 27.1 °F 20.3 °F 59% 30.02 in 10.0 mi West 6.9 mph - N/A   Clear
5:35 AM 33.4 °F 28.1 °F 20.3 °F 59% 30.02 in 10.0 mi West 5.8 mph - N/A   Clear
5:55 AM 33.1 °F 26.1 °F 20.8 °F 61% 30.01 in 10.0 mi WSW 8.1 mph - N/A   Clear
6:15 AM 34.0 °F 28.0 °F 21.2 °F 60% 30.01 in 10.0 mi WSW 6.9 mph - N/A   Clear
6:35 AM 32.9 °F 25.9 °F 21.4 °F 63% 30.01 in 10.0 mi West 8.1 mph - N/A   Clear
6:55 AM 33.6 °F 27.5 °F 21.7 °F 62% 30.01 in 10.0 mi West 6.9 mph - N/A   Clear
7:15 AM 33.4 °F 28.1 °F 21.9 °F 63% 30.01 in 10.0 mi WSW 5.8 mph - N/A   Clear
7:35 AM 33.1 °F 26.9 °F 21.7 °F 63% 30.01 in 10.0 mi WSW 6.9 mph - N/A   Clear
7:55 AM 33.1 °F 26.9 °F 22.1 °F 64% 30.01 in 10.0 mi WSW 6.9 mph - N/A   Clear
8:15 AM 35.4 °F 29.7 °F 23.2 °F 61% 30.01 in 10.0 mi WSW 6.9 mph - N/A   Clear
8:35 AM 36.9 °F 32.2 °F 23.9 °F 59% 30.02 in 10.0 mi West 5.8 mph - N/A   Clear
8:55 AM 38.3 °F 34.8 °F 24.8 °F 58% 30.02 in 10.0 mi West 4.6 mph - N/A   Clear
9:15 AM 41.4 °F 37.6 °F 25.7 °F 54% 30.02 in 10.0 mi West 5.8 mph - N/A   Clear
9:35 AM 44.4 °F 39.5 °F 25.7 °F 48% 30.02 in 10.0 mi West 9.2 mph - N/A   Clear
9:55 AM 47.3 °F - 25.2 °F 42% 30.02 in 10.0 mi West 9.2 mph - N/A   Clear
10:15 AM 50.9 °F - 25.2 °F 37% 30.01 in 10.0 mi WSW 9.2 mph - N/A   Clear
10:35 AM 53.4 °F - 25.2 °F 33% 30.01 in 10.0 mi SW 11.5 mph - N/A   Clear
10:55 AM 55.6 °F - 24.4 °F 30% 30.01 in 10.0 mi WSW 12.7 mph - N/A   Clear
11:15 AM 57.4 °F - 23.9 °F 28% 29.99 in 10.0 mi West 11.5 mph - N/A   Clear
11:35 AM 59.2 °F - 23.4 °F 25% 29.98 in 10.0 mi WSW 12.7 mph - N/A   Clear
11:55 AM 61.0 °F - 23.2 °F 24% 29.97 in 10.0 mi WSW 11.5 mph - N/A   Clear
12:15 PM 61.7 °F - 23.2 °F 23% 29.96 in 10.0 mi WSW 13.8 mph - N/A   Clear
12:35 PM 62.1 °F - 22.6 °F 22% 29.96 in 10.0 mi WSW 15.0 mph 20.7 mph N/A   Clear
12:55 PM 63.1 °F - 21.6 °F 20% 29.94 in 10.0 mi SW 10.4 mph 18.4 mph N/A   Clear
1:15 PM 63.7 °F - 21.0 °F 20% 29.94 in 10.0 mi SW 16.1 mph 20.7 mph N/A   Clear
1:35 PM 64.6 °F - 19.6 °F 18% 29.92 in 10.0 mi SW 13.8 mph 21.9 mph N/A   Clear
1:55 PM 65.3 °F - 16.2 °F 15% 29.91 in 10.0 mi SSW 17.3 mph 23.0 mph N/A   Clear
2:15 PM 65.7 °F - 16.0 °F 15% 29.90 in 10.0 mi WSW 12.7 mph 25.3 mph N/A   Clear
2:35 PM 66.0 °F - 16.2 °F 15% 29.89 in 10.0 mi SW 18.4 mph 29.9 mph N/A   Clear
2:55 PM 66.7 °F - 16.9 °F 15% 29.87 in 10.0 mi SW 18.4 mph 24.2 mph N/A   Clear
3:15 PM 67.1 °F - 16.0 °F 14% 29.86 in 10.0 mi SW 18.4 mph 23.0 mph N/A   Clear
3:35 PM 68.2 °F - 16.3 °F 14% 29.85 in 10.0 mi SSW 18.4 mph 25.3 mph N/A   Clear
3:55 PM 68.0 °F - 16.9 °F 14% 29.83 in 10.0 mi SSW 15.0 mph 23.0 mph N/A   Clear
4:15 PM 68.5 °F - 15.1 °F 13% 29.82 in 10.0 mi SW 16.1 mph 25.3 mph N/A   Clear
4:35 PM 68.2 °F - 15.1 °F 13% 29.81 in 10.0 mi SW 17.3 mph 24.2 mph N/A   Clear
4:55 PM 68.5 °F - 15.4 °F 13% 29.80 in 10.0 mi SW 18.4 mph - N/A   Clear
5:15 PM 68.0 °F - 14.2 °F 13% 29.79 in 10.0 mi SW 18.4 mph 25.3 mph N/A   Clear
5:35 PM 67.5 °F - 13.6 °F 13% 29.78 in 10.0 mi SSW 16.1 mph - N/A   Clear
5:55 PM 67.1 °F - 12.9 °F 12% 29.77 in 10.0 mi SSW 16.1 mph - N/A   Clear
6:15 PM 66.6 °F - 14.2 °F 13% 29.77 in 10.0 mi SSW 15.0 mph 19.6 mph N/A   Clear
6:35 PM 65.7 °F - 13.1 °F 13% 29.77 in 10.0 mi SSW 13.8 mph 21.9 mph N/A   Clear
6:55 PM 64.0 °F - 14.9 °F 15% 29.77 in 10.0 mi SSW 12.7 mph 17.3 mph N/A   Clear
7:15 PM 61.7 °F - 16.0 °F 17% 29.76 in 10.0 mi SSW 12.7 mph - N/A   Clear
7:35 PM 59.0 °F - 16.7 °F 19% 29.75 in 10.0 mi South 10.4 mph - N/A   Clear
7:55 PM 55.8 °F - 18.3 °F 23% 29.75 in 10.0 mi South 10.4 mph - N/A   Clear
8:15 PM 55.4 °F - 18.7 °F 24% 29.75 in 10.0 mi South 11.5 mph - N/A   Clear
8:35 PM 54.0 °F - 19.2 °F 26% 29.74 in 10.0 mi South 10.4 mph - N/A   Clear
8:55 PM 53.4 °F - 19.0 °F 26% 29.74 in 10.0 mi South 9.2 mph - N/A   Clear
9:15 PM 52.3 °F - 18.9 °F 27% 29.74 in 10.0 mi South 10.4 mph - N/A   Clear
9:35 PM 52.0 °F - 18.5 °F 27% 29.73 in 10.0 mi SSE 10.4 mph - N/A   Clear
9:55 PM 52.7 °F - 18.5 °F 26% 29.72 in 10.0 mi South 12.7 mph - N/A   Clear
10:15 PM 51.6 °F - 18.5 °F 27% 29.72 in 10.0 mi South 12.7 mph - N/A   Clear
10:35 PM 50.0 °F - 18.5 °F 29% 29.72 in 10.0 mi South 13.8 mph - N/A   Clear
10:55 PM 49.5 °F - 18.3 °F 29% 29.72 in 10.0 mi South 15.0 mph - N/A   Clear
11:15 PM 50.9 °F - 18.0 °F 27% 29.71 in 10.0 mi South 17.3 mph - N/A   Clear
11:35 PM 50.5 °F - 18.3 °F 28% 29.70 in 10.0 mi South 16.1 mph 23.0 mph N/A   Clear
11:55 PM 50.2 °F - 18.5 °F 29% 29.69 in 10.0 mi South 17.3 mph - N/A   Clear